• In Belarus
  • List of Countries
  • For 7 days
  • Water Temperature
  • Satellite Maps
  • Weather Map
  • Weather Widgets
  • user-avatar
    Login

    Hourly Weather Klagenfurt

    Today, 15 December, Saturday

    Time Temperature Precipitation Wind Pressure Humidity
    00:00 -6°C° 0 mm 2 mps 689 mmHg 81%
    01:00 -7°C° 0 mm 2 mps 689 mmHg 81%
    02:00 -7°C° 0 mm 2 mps 689 mmHg 80%
    03:00 -7°C° 0 mm 2 mps 689 mmHg 79%
    04:00 -7°C° 0 mm 2 mps 689 mmHg 78%
    05:00 -6°C° 0 mm 1 mps 689 mmHg 78%
    06:00 -6°C° 0 mm 1 mps 689 mmHg 77%
    07:00 -6°C° 0 mm 1 mps 690 mmHg 76%
    08:00 -6°C° 0 mm 2 mps 690 mmHg 72%
    09:00 -5°C° 0 mm 2 mps 690 mmHg 67%
    10:00 -4°C° 0 mm 2 mps 690 mmHg 63%
    11:00 -4°C° 0 mm 2 mps 690 mmHg 59%
    12:00 -3°C° 0 mm 2 mps 690 mmHg 56%
    13:00 -2°C° 0 mm 2 mps 690 mmHg 52%
    14:00 -1°C° 0 mm 1 mps 690 mmHg 56%
    15:00 -1°C° 0 mm 1 mps 690 mmHg 60%
    16:00 -2°C° 0 mm 1 mps 690 mmHg 64%
    17:00 -3°C° 0 mm 1 mps 690 mmHg 67%
    18:00 -3°C° 0 mm 1 mps 690 mmHg 70%
    19:00 -4°C° 0 mm 1 mps 690 mmHg 72%
    20:00 -4°C° 0 mm 1 mps 690 mmHg 73%
    21:00 -4°C° 0 mm 1 mps 690 mmHg 73%
    22:00 -6°C° 0 mm 1 mps 690 mmHg 73%
    23:00 -6°C° 0 mm 1 mps 690 mmHg 72%

    Tomorrow, 16 December, Sunday

    Time Temperature Precipitation Wind Pressure Humidity
    00:00 -6°C° 0 mm 1 mps 690 mmHg 72%
    01:00 -6°C° 0 mm 1 mps 690 mmHg 71%
    02:00 -6°C° 0 mm 1 mps 689 mmHg 71%
    03:00 -6°C° 0 mm 1 mps 689 mmHg 70%
    04:00 -6°C° 0 mm 1 mps 689 mmHg 70%
    05:00 -6°C° 0 mm 1 mps 689 mmHg 70%
    06:00 -6°C° 0 mm 1 mps 689 mmHg 70%
    07:00 -6°C° 0 mm 1 mps 689 mmHg 70%
    08:00 -4°C° 0 mm 1 mps 689 mmHg 65%
    09:00 -3°C° 0 mm 1 mps 689 mmHg 61%
    10:00 -1°C° 0 mm 1 mps 689 mmHg 56%
    11:00 0°C° 0 mm 1 mps 689 mmHg 53%
    12:00 0°C° 0 mm 1 mps 689 mmHg 50%
    13:00 +1°C° 0 mm 1 mps 689 mmHg 47%
    14:00 +1°C° 0 mm 1 mps 689 mmHg 51%
    15:00 0°C° 0 mm 1 mps 689 mmHg 55%
    16:00 -1°C° 0 mm 1 mps 688 mmHg 59%
    17:00 -1°C° 0 mm 1 mps 689 mmHg 59%
    18:00 -2°C° 0 mm 0 mps 689 mmHg 59%
    19:00 -2°C° 0 mm 0 mps 689 mmHg 59%
    20:00 -2°C° 0 mm 0 mps 689 mmHg 59%
    21:00 -2°C° 0 mm 0 mps 689 mmHg 59%
    22:00 -2°C° 0 mm 0 mps 689 mmHg 59%
    23:00 -2°C° 0.2 mm 0 mps 689 mmHg 65%

    Day after tomorrow, 17 December, Monday

    Time Temperature Precipitation Wind Pressure Humidity
    00:00 -2°C° 0.2 mm 0 mps 689 mmHg 71%
    01:00 -2°C° 0.2 mm 0 mps 689 mmHg 77%
    02:00 -1°C° 0.6 mm 1 mps 689 mmHg 82%
    03:00 -1°C° 0.6 mm 1 mps 689 mmHg 87%
    04:00 -1°C° 0.6 mm 1 mps 688 mmHg 91%
    05:00 -1°C° 0.3 mm 1 mps 689 mmHg 91%
    06:00 -1°C° 0.3 mm 1 mps 689 mmHg 92%
    07:00 -1°C° 0.3 mm 1 mps 689 mmHg 92%
    08:00 -1°C° 0.1 mm 1 mps 689 mmHg 89%
    09:00 0°C° 0.1 mm 1 mps 690 mmHg 87%
    10:00 0°C° 0.1 mm 1 mps 690 mmHg 84%
    11:00 +1°C° 0.1 mm 1 mps 690 mmHg 82%
    12:00 +2°C° 0.1 mm 1 mps 690 mmHg 80%
    13:00 +2°C° 0.1 mm 1 mps 690 mmHg 78%
    14:00 +2°C° 0.1 mm 1 mps 690 mmHg 81%
    15:00 +1°C° 0.1 mm 1 mps 691 mmHg 84%
    16:00 +1°C° 0.1 mm 1 mps 691 mmHg 87%
    17:00 0°C° 0 mm 1 mps 691 mmHg 88%
    18:00 0°C° 0 mm 1 mps 692 mmHg 90%
    19:00 -1°C° 0 mm 1 mps 693 mmHg 91%
    20:00 -1°C° 0 mm 1 mps 693 mmHg 91%
    21:00 -1°C° 0 mm 1 mps 693 mmHg 91%
    22:00 -1°C° 0 mm 1 mps 694 mmHg 91%
    23:00 -1°C° 0 mm 1 mps 694 mmHg 90%

    18 December, Tuesday

    Time Temperature Precipitation Wind Pressure Humidity
    00:00 -2°C° 0 mm 1 mps 694 mmHg 90%
    01:00 -2°C° 0 mm 1 mps 694 mmHg 89%
    02:00 -2°C° 0 mm 1 mps 694 mmHg 88%
    03:00 -2°C° 0 mm 1 mps 694 mmHg 87%
    04:00 -2°C° 0 mm 1 mps 694 mmHg 86%
    05:00 -2°C° 0 mm 1 mps 694 mmHg 85%
    06:00 -3°C° 0 mm 1 mps 695 mmHg 85%
    07:00 -3°C° 0 mm 1 mps 695 mmHg 84%
    08:00 -1°C° 0 mm 1 mps 695 mmHg 80%
    09:00 0°C° 0 mm 1 mps 696 mmHg 76%
    10:00 0°C° 0 mm 0 mps 696 mmHg 71%
    11:00 +2°C° 0 mm 0 mps 696 mmHg 68%
    12:00 +3°C° 0 mm 0 mps 696 mmHg 65%
    13:00 +4°C° 0 mm 0 mps 695 mmHg 62%
    14:00 +2°C° 0 mm 0 mps 695 mmHg 68%
    15:00 +1°C° 0 mm 0 mps 694 mmHg 74%
    16:00 +1°C° 0 mm 1 mps 694 mmHg 80%
    17:00 0°C° 0 mm 1 mps 694 mmHg 80%
    18:00 -1°C° 0 mm 1 mps 694 mmHg 81%
    19:00 -1°C° 0 mm 1 mps 694 mmHg 82%
    20:00 -2°C° 0 mm 1 mps 693 mmHg 81%
    21:00 -2°C° 0 mm 1 mps 693 mmHg 80%
    22:00 -2°C° 0 mm 1 mps 693 mmHg 80%
    23:00 -2°C° 0 mm 1 mps 693 mmHg 78%

    19 December, Wednesday

    Time Temperature Precipitation Wind Pressure Humidity
    00:00 -2°C° 0 mm 1 mps 692 mmHg 77%
    01:00 -2°C° 0 mm 1 mps 692 mmHg 76%
    02:00 -2°C° 0 mm 1 mps 691 mmHg 75%
    03:00 -2°C° 0 mm 1 mps 691 mmHg 73%
    04:00 -2°C° 0 mm 1 mps 690 mmHg 72%
    05:00 -2°C° 0 mm 1 mps 690 mmHg 71%
    06:00 -1°C° 0 mm 1 mps 690 mmHg 70%
    07:00 -1°C° 0 mm 1 mps 690 mmHg 69%
    08:00 0°C° 0 mm 1 mps 691 mmHg 68%
    09:00 +1°C° 0 mm 1 mps 691 mmHg 67%
    10:00 +2°C° 0 mm 1 mps 691 mmHg 66%
    11:00 +3°C° 0 mm 1 mps 691 mmHg 66%
    12:00 +3°C° 0 mm 1 mps 690 mmHg 66%
    13:00 +4°C° 0 mm 1 mps 690 mmHg 67%
    14:00 +3°C° 0 mm 1 mps 690 mmHg 73%
    15:00 +2°C° 0 mm 1 mps 690 mmHg 79%
    16:00 +1°C° 0 mm 1 mps 690 mmHg 85%
    17:00 +1°C° 0 mm 1 mps 690 mmHg 85%
    18:00 0°C° 0 mm 1 mps 690 mmHg 86%
    19:00 0°C° 0 mm 1 mps 690 mmHg 86%
    20:00 0°C° 0 mm 1 mps 690 mmHg 86%
    21:00 0°C° 0 mm 1 mps 690 mmHg 85%
    22:00 0°C° 0 mm 1 mps 690 mmHg 84%
    23:00 0°C° 0.2 mm 0 mps 690 mmHg 85%

    20 December, Thursday

    Time Temperature Precipitation Wind Pressure Humidity
    00:00 0°C° 0.2 mm 0 mps 690 mmHg 86%
    01:00 0°C° 0.2 mm 0 mps 690 mmHg 86%
    02:00 0°C° 1 mm 0 mps 690 mmHg 87%
    03:00 +1°C° 1 mm 1 mps 689 mmHg 89%
    04:00 +1°C° 1 mm 1 mps 689 mmHg 90%
    05:00 +1°C° 0.8 mm 1 mps 689 mmHg 90%
    06:00 +1°C° 0.8 mm 1 mps 689 mmHg 91%
    07:00 0°C° 0.8 mm 0 mps 689 mmHg 91%
    08:00 +1°C° 0.7 mm 1 mps 689 mmHg 91%
    09:00 +1°C° 0.7 mm 1 mps 689 mmHg 90%
    10:00 +2°C° 0.7 mm 1 mps 689 mmHg 89%
    11:00 +2°C° 0.9 mm 1 mps 688 mmHg 89%
    12:00 +1°C° 0.9 mm 0 mps 688 mmHg 88%
    13:00 +2°C° 0.9 mm 0 mps 688 mmHg 88%
    14:00 +1°C° 0.2 mm 0 mps 688 mmHg 89%
    15:00 +1°C° 0.2 mm 0 mps 688 mmHg 91%
    16:00 +1°C° 0.2 mm 0 mps 687 mmHg 92%
    17:00 0°C° 0 mm 0 mps 688 mmHg 92%
    18:00 0°C° 0 mm 0 mps 688 mmHg 93%
    19:00 -1°C° 0 mm 0 mps 688 mmHg 93%
    20:00 -1°C° 0 mm 0 mps 687 mmHg 93%
    21:00 -1°C° 0 mm 0 mps 687 mmHg 93%
    22:00 -1°C° 0 mm 0 mps 687 mmHg 93%
    23:00 -1°C° 0 mm 0 mps 687 mmHg 94%
    Show more